Content
SEND FEEDBACK

Daily
Averages
Monthly
Summary
United States of America

BLACK HAWK, SOUTH DAKOTA


Home > North America > United States > South Dakota
Elevation: 3352 feet     Latitude: 44 05N     Longitude: 103 16W

WEATHER
 
SELECT A DAY
Number of Records: 208,815;   Date Range: 1/1/95 - 11/21/14
 
SHARE

PRINT THIS DATA

[ ← Previous Day ]
WEATHER ALMANAC - NOVEMBER 13, 2013
[ Next Day → ]
[ °C ]   °F
Weather ElementAverageHighLow
Temperature48.6 °F61.7 °F (2:58 pm)31.6 °F (1:58 am)
Dewpoint31.4 °F39.7 °F (11:58 pm)22.1 °F (3:58 am)
Humidity53.6 %77 % (11:58 pm)30 % (9:58 am)
Barometer30.07 in30.17 in (1:58 am)30.00 in (9:25 pm)
Wind Speed8.4 mph16.1 mph (10:14 pm)
Weather ElementAverage
Visibility10 mi
Wind DirectionWSW (255.4 °)

Weather ElementTotal
Precipitation---
Heating Degree Days18.4 (Base 65)
Averaged from 28 records on November 13, 2013
WEATHER CONDITIONS BREAKOUT
WIND DIRECTION BREAKOUT
WEATHER BY HOUR - NOVEMBER 13, 2013
[ °C ]   °F
Local TimeTemperatureDewpointHumidityBarometerVisibilityWind DirectionWind SpeedGust SpeedPrecipitationEventsConditions
1:58 AM31.6 °F23.5 °F72 %30.17 in10.0 miWNW (290°)8.1 mphClear
2:58 AM35.2 °F23.5 °F62 %30.16 in10.0 miWNW (290°)5.8 mphClear
3:58 AM35.6 °F22.1 °F58 %30.14 in10.0 miNW (310°)3.5 mphClear
4:58 AM36.5 °F23.5 °F59 %30.15 in10.0 miWNW (300°)5.8 mphClear
5:58 AM34.7 °F25.5 °F69 %30.15 in10.0 miWNW (290°)5.8 mphClear
6:58 AM40.8 °F25.7 °F55 %30.16 in10.0 miWest (280°)3.5 mphClear
7:58 AM43.5 °F30.2 °F59 %30.15 in10.0 miWest (270°)3.5 mphClear
8:58 AM51.8 °F32.5 °F48 %30.14 in10.0 miWest (260°)4.6 mphClear
9:58 AM57.9 °F26.4 °F30 %30.12 in10.0 miNorth (350°)9.2 mphClear
10:58 AM58.3 °F29.1 °F33 %30.11 in10.0 miNorth (350°)9.2 mphClear
11:58 AM57.9 °F29.5 °F34 %30.08 in10.0 miNorth (10°)10.4 mphClear
12:58 PM60.4 °F28.8 °F30 %30.06 in10.0 miNNE (20°)13.8 mphClear
1:58 PM61.2 °F29.8 °F31 %30.04 in10.0 miNNE (20°)6.9 mphClear
2:58 PM61.7 °F31.6 °F32 %30.01 in10.0 miNNE (30°)3.5 mphPartly Cloudy
3:58 PM58.1 °F34.0 °F40 %30.01 in10.0 miNE (50°)4.6 mphClear
4:58 PM52.5 °F33.3 °F48 %30.02 in10.0 miNorthClear
5:58 PM44.8 °F33.4 °F64 %30.06 in10.0 miWNW (300°)4.6 mphScattered Clouds
6:58 PM47.3 °F33.8 °F59 %30.03 in10.0 miNNW (340°)5.8 mphMostly Cloudy
7:58 PM48.7 °F34.3 °F58 %30.02 in10.0 miNNW (340°)10.4 mphMostly Cloudy
8:58 PM50.2 °F34.0 °F54 %30.01 in10.0 miNNW (340°)8.1 mphOvercast
9:25 PM50.0 °F33.8 °F54 %30.00 in10.0 miNNW (340°)10.4 mphLight Drizzle
9:58 PM49.8 °F36.3 °F60 %30.01 in10.0 miNNW (340°)12.7 mph0.00 inRainLight Rain
10:04 PM50.0 °F35.6 °F58 %30.00 in10.0 miNNW (340°)12.7 mphOvercast
10:14 PM50.0 °F35.6 °F58 %30.00 in10.0 miNNW (340°)16.1 mphLight Drizzle
10:35 PM48.2 °F37.4 °F66 %30.00 in10.0 miNNW (330°)13.8 mphOvercast
10:36 PM48.2 °F37.4 °F66 %30.00 in10.0 miNNW (330°)13.8 mphRainLight Rain
10:58 PM48.4 °F37.6 °F66 %30.01 in10.0 miNNW (330°)13.8 mph0.00 inRainLight Rain
11:58 PM46.6 °F39.7 °F77 %30.01 in10.0 miNorth (360°)6.9 mph0.00 inRainLight Rain
Hourly data recorded from KRCA, located miles away from Black Hawk, South Dakota







STORIES FROM OUR PARTNERS